PA5MB-15 Weather Reports


Display with metric or nautical units.
time (UTC)temp
F
wind
direction
speed
MPH
gust
MPH
rain 1hr
in
rain 24hr
in
rain mn
in
humidity
%
barometer
mb
20260506001524 50 360 3.0 5.0 0.00 0.00 0.00 83 1010.6
20260506001022 50 346 3.0 6.0 0.00 0.00 0.00 83 1010.6
20260506000530 50 357 2.0 6.0 0.00 0.00 0.00 83 1010.6
20260506000032 51 357 3.0 6.0 0.00 0.00 0.00 82 1010.6
20260505235532 51 12 2.0 5.0 0.00 0.00 0.00 82 1010.7
20260505235025 51 351 3.0 5.0 0.00 0.00 0.00 82 1010.7
20260505234530 51 347 2.0 5.0 0.00 0.00 0.00 82 1010.7
20260505234032 51 2 3.0 5.0 0.00 0.00 0.00 81 1010.7
20260505233525 51 12 3.0 6.0 0.00 0.01 0.00 81 1010.7
20260505233033 51 359 2.0 4.0 0.00 0.01 0.00 81 1010.7
20260505232532 51 353 2.0 6.0 0.00 0.01 0.00 81 1010.7
20260505232044 51 358 3.0 5.0 0.00 0.01 0.00 81 1010.8
20260505231532 51 358 3.0 7.0 0.00 0.03 0.00 81 1010.8
20260505231032 51 337 2.0 5.0 0.00 0.05 0.00 82 1010.9
20260505230532 51 15 2.0 4.0 0.00 0.07 0.00 82 1010.9
20260505230032 51 360 3.0 5.0 0.00 0.16 0.00 82 1010.9
20260505225532 50 355 3.0 6.0 0.00 0.20 0.00 82 1010.9
20260505225030 50 353 3.0 5.0 0.00 0.20 0.00 82 1010.9
20260505224532 50 356 2.0 4.0 0.00 0.21 0.00 83 1010.9
20260505224032 50 347 3.0 5.0 0.00 0.23 0.00 83 1011.0
20260505223524 50 356 2.0 5.0 0.00 0.25 0.00 83 1011.0
20260505223030 51 345 2.0 4.0 0.00 0.26 0.00 83 1011.1
20260505222532 51 11 3.0 6.0 0.00 0.27 0.00 83 1011.1
20260505222021 51 12 2.0 4.0 0.00 0.28 0.00 82 1011.1
20260505221532 51 350 3.0 6.0 0.00 0.31 0.00 82 1011.1
20260505221040 51 354 3.0 5.0 0.00 0.35 0.00 82 1011.1
20260505220544 51 350 3.0 5.0 0.00 0.39 0.00 82 1011.2
20260505220034 51 348 3.0 6.0 0.00 0.40 0.00 82 1011.2
20260505215532 51 2 2.0 5.0 0.00 0.40 0.40 82 1011.2
20260505215032 51 0 3.0 6.0 0.00 0.41 0.40 82 1011.2
20260505214530 51 1 2.0 5.0 0.00 0.43 0.40 82 1011.2
20260505214023 51 342 4.0 6.0 0.00 0.43 0.40 81 1011.2
20260505213532 51 343 3.0 5.0 0.00 0.43 0.40 82 1011.2
20260505213032 51 351 3.0 10.0 0.00 0.43 0.40 82 1011.2
20260505212530 51 4 3.0 5.0 0.00 0.43 0.40 82 1011.3
20260505212032 51 11 4.0 6.0 0.00 0.43 0.40 82 1011.3
20260505211532 51 358 3.0 5.0 0.00 0.43 0.40 82 1011.3
20260505211044 51 12 3.0 6.0 0.00 0.43 0.40 82 1011.3
20260505210532 51 345 3.0 6.0 0.00 0.43 0.40 82 1011.3
20260505210024 52 357 3.0 6.0 0.00 0.43 0.40 82 1011.3
20260505205532 52 0 4.0 6.0 0.00 0.43 0.40 82 1011.3
20260505205030 52 347 3.0 5.0 0.00 0.43 0.40 82 1011.3
20260505204542 52 357 4.0 6.0 0.00 0.43 0.40 82 1011.4
20260505204024 52 1 4.0 7.0 0.00 0.43 0.40 82 1011.4
20260505203530 52 11 3.0 6.0 0.00 0.43 0.40 82 1011.4
20260505203032 52 3 3.0 5.0 0.00 0.43 0.40 82 1011.4
20260505202531 52 13 4.0 6.0 0.00 0.43 0.40 82 1011.3
20260505202030 52 8 3.0 5.0 0.00 0.43 0.40 82 1011.3
20260505201533 52 4 3.0 6.0 0.00 0.43 0.40 82 1011.4
20260505201044 52 337 4.0 6.0 0.00 0.43 0.40 82 1011.3
20260505200532 52 11 3.0 6.0 0.00 0.43 0.40 81 1011.2
20260505200032 52 360 3.0 6.0 0.00 0.43 0.40 81 1011.2
20260505195531 53 349 4.0 7.0 0.00 0.43 0.40 81 1011.2
20260505195044 53 344 3.0 6.0 0.00 0.43 0.40 82 1011.2
20260505194532 53 5 4.0 9.0 0.00 0.43 0.40 81 1011.1
20260505194035 53 359 3.0 8.0 0.00 0.43 0.40 81 1011.1
20260505193531 53 10 2.0 5.0 0.00 0.43 0.40 81 1011.1
20260505193044 53 350 4.0 5.0 0.00 0.43 0.40 80 1011.1
20260505192532 53 8 3.0 6.0 0.00 0.43 0.40 80 1010.9
20260505192031 53 8 4.0 6.0 0.00 0.43 0.40 80 1010.9
20260505191533 53 12 4.0 10.0 0.00 0.43 0.40 80 1010.9
20260505191033 54 357 4.0 9.0 0.00 0.43 0.40 79 1010.9
20260505190524 54 351 4.0 7.0 0.00 0.43 0.40 79 1010.8
20260505190032 54 0 3.0 8.0 0.00 0.43 0.40 78 1010.8
20260505185531 54 0 3.0 8.0 0.00 0.43 0.40 78 1010.7
20260505185031 54 350 3.0 6.0 0.00 0.43 0.40 77 1010.7
20260505184527 54 347 4.0 7.0 0.00 0.43 0.40 77 1010.6
20260505184031 54 359 4.0 10.0 0.00 0.43 0.40 77 1010.6
20260505183533 55 341 5.0 9.0 0.00 0.43 0.40 77 1010.6
20260505183044 55 357 5.0 9.0 0.00 0.43 0.40 77 1010.6
20260505182523 55 1 4.0 6.0 0.00 0.43 0.40 77 1010.5
20260505182032 55 14 4.0 9.0 0.00 0.43 0.40 77 1010.5
20260505181532 55 6 5.0 9.0 0.00 0.43 0.40 77 1010.5
20260505181031 55 348 4.0 6.0 0.00 0.43 0.40 77 1010.5
20260505180530 55 347 4.0 7.0 0.00 0.43 0.40 76 1010.5
20260505180031 56 1 4.0 11.0 0.00 0.43 0.40 76 1010.5
20260505175535 56 353 4.0 10.0 0.00 0.43 0.40 76 1010.4
20260505175021 56 355 5.0 10.0 0.00 0.43 0.40 77 1010.4
20260505174531 56 354 3.0 6.0 0.00 0.43 0.40 77 1010.4
20260505174032 56 2 4.0 9.0 0.00 0.43 0.40 77 1010.3
20260505173532 56 352 4.0 8.0 0.00 0.43 0.40 77 1010.4
20260505173024 56 345 4.0 6.0 0.00 0.43 0.40 76 1010.4
20260505172539 56 356 4.0 8.0 0.00 0.43 0.40 76 1010.4
20260505172031 56 15 4.0 8.0 0.00 0.43 0.40 76 1010.4
20260505171531 57 350 4.0 9.0 0.00 0.43 0.40 77 1010.4
20260505171055 57 359 4.0 9.0 0.00 0.43 0.40 77 1010.4
20260505170526 57 7 4.0 7.0 0.00 0.43 0.40 76 1010.5
20260505170033 58 343 3.0 5.0 0.00 0.43 0.40 76 1010.5
20260505165531 58 0 3.0 6.0 0.00 0.43 0.40 77 1010.5
20260505165031 58 357 3.0 5.0 0.00 0.43 0.40 77 1010.6
20260505164530 57 359 3.0 5.0 0.00 0.43 0.40 77 1010.6
20260505164031 57 354 4.0 6.0 0.00 0.43 0.40 78 1010.6
20260505163531 57 10 3.0 6.0 0.00 0.43 0.40 79 1010.6
20260505163020 58 350 4.0 9.0 0.00 0.43 0.40 79 1010.6
20260505162530 58 339 3.0 7.0 0.00 0.43 0.40 78 1010.6
20260505162031 58 357 3.0 7.0 0.00 0.43 0.40 78 1010.6
20260505161523 58 313 2.0 5.0 0.00 0.43 0.40 78 1010.7
20260505161036 58 341 3.0 5.0 0.00 0.43 0.40 79 1010.7
20260505160543 58 359 3.0 6.0 0.00 0.43 0.40 79 1010.8
20260505153031 59 342 3.0 6.0 0.00 0.43 0.40 76 1010.8
20260505152531 59 348 3.0 6.0 0.00 0.43 0.40 77 1010.9
20260505152031 58 349 3.0 5.0 0.00 0.43 0.40 77 1011.0
20260505151531 58 353 2.0 5.0 0.00 0.43 0.40 79 1011.0
20260505151023 58 359 3.0 6.0 0.00 0.43 0.40 79 1011.1
20260505150531 57 8 3.0 5.0 0.00 0.43 0.40 79 1011.1
20260505140543 55 356 4.0 6.0 0.00 0.43 0.40 85 1011.5
20260505125031 54 3 2.0 5.0 0.00 0.43 0.40 87 1011.9
20260505124526 54 356 2.0 5.0 0.00 0.43 0.40 87 1011.9
20260505124031 54 348 3.0 5.0 0.00 0.43 0.40 87 1011.9
20260505123524 54 350 3.0 5.0 0.00 0.43 0.40 87 1011.9
20260505123031 54 338 3.0 6.0 0.00 0.43 0.40 87 1012.0
20260505122531 54 338 2.0 5.0 0.00 0.43 0.40 86 1012.0
20260505122030 54 343 3.0 6.0 0.00 0.43 0.40 86 1012.0
20260505121531 54 347 3.0 5.0 0.00 0.43 0.40 87 1012.0
20260505121043 54 9 2.0 4.0 0.00 0.43 0.40 87 1012.0
20260505120530 54 254 1.0 4.0 0.00 0.43 0.40 87 1012.1
20260505120031 54 350 3.0 6.0 0.00 0.43 0.40 87 1012.1
20260505115524 54 354 2.0 4.0 0.00 0.43 0.40 87 1012.1
20260505115031 54 336 2.0 5.0 0.00 0.43 0.40 87 1012.1
20260505114531 54 345 3.0 5.0 0.00 0.43 0.40 87 1012.1
20260505114043 54 3 3.0 6.0 0.00 0.43 0.40 87 1012.1
20260505113531 54 354 3.0 5.0 0.00 0.43 0.40 87 1012.1
20260505113042 53 354 3.0 5.0 0.00 0.43 0.40 88 1012.2
20260505112531 53 338 3.0 5.0 0.00 0.43 0.40 88 1012.2
20260505112031 53 348 3.0 5.0 0.00 0.43 0.40 88 1012.2
20260505111532 53 7 2.0 5.0 0.00 0.43 0.40 89 1012.3
20260505111032 53 1 4.0 7.0 0.00 0.43 0.40 88 1012.3
20260505110543 53 343 3.0 5.0 0.00 0.43 0.40 88 1012.3
20260505102031 53 358 4.0 5.0 0.00 0.43 0.40 89 1012.4
20260505101530 53 351 3.0 6.0 0.00 0.43 0.40 89 1012.5
20260505101031 52 3 3.0 6.0 0.00 0.43 0.40 90 1012.5
20260505100530 52 339 3.0 6.0 0.00 0.43 0.40 90 1012.6
20260505100031 52 345 3.0 5.0 0.00 0.43 0.40 91 1012.5
20260505095523 52 0 3.0 7.0 0.00 0.43 0.40 91 1012.5
20260505095031 52 355 3.0 6.0 0.00 0.43 0.40 91 1012.5
20260505094531 52 332 3.0 6.0 0.00 0.43 0.40 91 1012.5
20260505094031 52 8 4.0 5.0 0.00 0.43 0.40 91 1012.6
20260505093524 52 7 2.0 6.0 0.00 0.43 0.40 91 1012.6
20260505093031 52 5 4.0 6.0 0.00 0.43 0.40 91 1012.6
20260505092532 52 4 4.0 6.0 0.00 0.43 0.40 91 1012.7
20260505092023 52 21 3.0 6.0 0.00 0.43 0.40 91 1012.6
20260505091531 52 349 3.0 6.0 0.00 0.43 0.40 92 1012.7
20260505091033 51 354 4.0 8.0 0.00 0.43 0.40 93 1012.7
20260505090543 51 9 2.0 5.0 0.00 0.43 0.40 93 1012.7
20260505090031 51 3 3.0 8.0 0.00 0.43 0.40 94 1012.7
20260505085532 51 351 3.0 5.0 0.00 0.43 0.40 94 1012.7
20260505085046 51 6 3.0 5.0 0.00 0.43 0.40 94 1012.7
20260505084543 51 27 1.0 4.0 0.00 0.43 0.40 94 1012.8
20260505084024 51 359 2.0 5.0 0.00 0.43 0.40 94 1012.8
20260505083535 51 4 2.0 5.0 0.00 0.43 0.40 94 1012.8
20260505083031 51 360 3.0 5.0 0.00 0.43 0.40 94 1012.8
20260505082531 51 345 2.0 5.0 0.00 0.43 0.40 94 1012.8
20260505082023 51 345 2.0 5.0 0.00 0.43 0.40 95 1012.8
20260505081531 51 355 2.0 5.0 0.00 0.43 0.40 95 1012.8
20260505081031 51 7 3.0 5.0 0.00 0.43 0.40 95 1012.8
20260505080531 51 14 2.0 5.0 0.00 0.43 0.40 95 1012.8
20260505080026 51 11 2.0 5.0 0.00 0.43 0.40 95 1012.8
20260505075534 51 5 2.0 4.0 0.00 0.43 0.40 95 1012.7
20260505075031 51 20 3.0 5.0 0.00 0.43 0.40 96 1012.7
20260505074530 50 349 2.0 7.0 0.00 0.43 0.40 96 1012.7
20260505074031 50 356 2.0 7.0 0.00 0.43 0.40 96 1012.6
20260505073531 50 350 3.0 8.0 0.00 0.43 0.40 97 1012.5
20260505073031 50 9 1.0 2.0 0.00 0.43 0.40 97 1012.6
20260505072531 50 1 1.0 6.0 0.00 0.43 0.40 97 1012.6
20260505072031 50 4 2.0 5.0 0.00 0.43 0.40 97 1012.6
20260505071535 50 343 3.0 5.0 0.00 0.43 0.40 97 1012.6
20260505071043 50 350 2.0 4.0 0.00 0.43 0.40 97 1012.6
20260505070530 50 2 2.0 5.0 0.00 0.43 0.40 98 1012.7
20260505070034 50 0 1.0 4.0 0.00 0.43 0.40 98 1012.8
20260505065533 50 354 2.0 5.0 0.00 0.43 0.40 98 1012.7
20260505065031 50 352 2.0 5.0 0.00 0.43 0.40 98 1012.7
20260505064521 50 5 2.0 5.0 0.00 0.43 0.40 98 1012.7
20260505064039 50 340 2.0 4.0 0.00 0.43 0.40 98 1012.8
20260505063534 50 358 3.0 7.0 0.00 0.43 0.40 98 1012.8
20260505063031 50 9 3.0 6.0 0.00 0.43 0.40 98 1012.7
20260505062524 50 1 3.0 12.0 0.00 0.43 0.40 98 1012.7
20260505062032 50 12 2.0 5.0 0.00 0.43 0.40 98 1012.7
20260505061530 50 13 2.0 4.0 0.00 0.43 0.40 98 1012.8
20260505061029 50 6 3.0 7.0 0.00 0.43 0.40 98 1012.8
20260505060531 50 352 3.0 6.0 0.00 0.43 0.40 98 1012.9
20260505060033 50 0 3.0 6.0 0.00 0.43 0.40 98 1012.9
20260505055529 50 356 3.0 6.0 0.00 0.43 0.40 98 1012.9
20260505055043 51 350 3.0 7.0 0.00 0.43 0.40 98 1012.9
20260505054542 51 354 3.0 6.0 0.00 0.43 0.40 98 1012.9
20260505054033 51 351 2.0 4.0 0.00 0.43 0.40 98 1013.0
20260505053533 51 10 2.0 5.0 0.00 0.43 0.40 98 1012.9
20260505053029 51 329 1.0 3.0 0.00 0.43 0.40 97 1012.9
20260505052530 51 337 1.0 4.0 0.00 0.43 0.40 97 1012.9
20260505052033 51 355 2.0 6.0 0.00 0.43 0.40 97 1012.9
20260505051535 51 0 2.0 5.0 0.00 0.43 0.40 96 1012.9
20260505051022 51 8 1.0 5.0 0.00 0.43 0.40 96 1012.9
20260505050536 51 339 1.0 4.0 0.00 0.43 0.40 96 1012.8
20260505041532 51 351 1.0 5.0 0.00 0.43 0.40 96 1012.5
20260505041030 51 341 1.0 4.0 0.00 0.43 0.40 96 1012.6
20260505040530 51 346 3.0 5.0 0.00 0.43 0.40 96 1012.6
20260505040030 51 359 1.0 5.0 0.00 0.43 0.40 96 1012.6
20260505035532 51 0 3.0 6.0 0.00 0.43 0.40 96 1012.6
20260505035029 51 34 1.0 4.0 0.00 0.43 0.40 96 1012.6
20260505034530 51 16 2.0 4.0 0.00 0.43 0.40 96 1012.6
20260505034045 51 4 1.0 5.0 0.00 0.43 0.40 96 1012.6
20260505033532 51 353 1.0 4.0 0.00 0.43 0.40 96 1012.7
20260505033029 51 358 2.0 5.0 0.00 0.43 0.40 96 1012.7
20260505032531 51 345 3.0 7.0 0.00 0.43 0.40 96 1012.7
20260505032031 51 8 2.0 5.0 0.00 0.43 0.40 96 1012.8
20260505031532 51 0 2.0 7.0 0.00 0.43 0.40 96 1012.8
20260505031030 51 352 2.0 4.0 0.00 0.43 0.40 96 1012.9
20260505030531 51 356 1.0 5.0 0.00 0.43 0.40 96 1012.9
20260505030032 51 29 1.0 5.0 0.00 0.43 0.40 96 1013.0
20260505025530 51 349 2.0 5.0 0.00 0.43 0.40 96 1013.0
20260505025023 51 353 3.0 6.0 0.00 0.43 0.40 96 1012.9
20260505024530 51 356 4.0 9.0 0.00 0.43 0.40 96 1013.0
20260505024031 51 357 4.0 7.0 0.00 0.43 0.40 96 1013.0
20260505023531 51 347 3.0 7.0 0.00 0.43 0.40 96 1012.9
20260505023045 51 8 3.0 5.0 0.00 0.43 0.40 96 1012.9
20260505022542 51 344 3.0 6.0 0.00 0.43 0.40 96 1012.9
20260505022030 51 346 3.0 6.0 0.00 0.43 0.40 96 1013.0
20260505021535 52 352 3.0 7.0 0.00 0.43 0.40 96 1012.9
20260505021030 52 350 2.0 5.0 0.00 0.43 0.40 96 1012.9
20260505020543 52 0 3.0 6.0 0.00 0.43 0.40 96 1012.9
20260505020023 52 352 3.0 7.0 0.00 0.43 0.40 96 1012.8
20260505015530 52 354 2.0 4.0 0.00 0.43 0.40 96 1012.9
20260505015030 52 6 3.0 6.0 0.00 0.43 0.40 96 1012.9
20260505014542 52 5 4.0 6.0 0.00 0.43 0.40 96 1013.0
20260505014024 52 343 3.0 8.0 0.00 0.43 0.40 96 1013.0
20260505013530 52 356 4.0 7.0 0.00 0.43 0.40 96 1013.0
20260505013028 52 357 3.0 5.0 0.00 0.43 0.40 96 1013.1
20260505012535 52 355 3.0 8.0 0.00 0.43 0.40 96 1013.1
20260505012030 53 352 4.0 9.0 0.00 0.43 0.40 96 1013.1
20260505011530 53 353 2.0 6.0 0.00 0.43 0.40 96 1013.1
20260505011029 53 349 3.0 8.0 0.00 0.43 0.40 96 1013.1
20260505010530 53 3 4.0 8.0 0.00 0.43 0.40 96 1013.2
20260505010031 53 357 3.0 6.0 0.00 0.43 0.40 96 1013.2
20260505005525 53 356 3.0 6.0 0.00 0.43 0.40 96 1013.2
20260505005031 53 357 2.0 5.0 0.00 0.44 0.40 96 1013.3
20260505004531 53 350 2.0 7.0 0.00 0.44 0.40 96 1013.3
20260505004030 53 356 2.0 4.0 0.00 0.44 0.40 97 1013.3
20260505003530 53 339 2.0 5.0 0.01 0.44 0.40 97 1013.3
20260505003030 53 352 3.0 6.0 0.01 0.44 0.40 97 1013.3
20260505002521 53 20 2.0 7.0 0.01 0.44 0.40 97 1013.3
20260505002030 53 350 3.0 5.0 0.01 0.44 0.40 97 1013.4